CAPE
0 0 0 0 0 95 288 494 562 641 721 673 634 909 957 968 987 1072 1319 1409 1456 1547 1251 1332 1357 1382 1422 1534 1640 1998 2406 2459 2507 2515 2685 2989 3129 3073 3036 3106 3139 2974 2886 2491 2481 3414 2336 2532 2720 3125 3369 3208 2793 2565 2699 2713 1890 2438 2584 3199 2966 2448 2302 1907 1357 830 918 896 1060 991 969 831 1680 2350 778 711 1008 1272 1384 1374 1442 1194 1433 1832 2107
0 0 0 0 8 81 106 172 426 600 606 560 630 916 914 910 897 1082 1203 1291 1294 1329 1129 1284 1353 1405 1441 1545 1631 1845 2305 2443 2475 2534 2674 2835 2864 2857 2873 3067 3010 2873 2888 2672 2716 2443 2344 2424 2674 2951 3089 3327 2840 3001 2738 4656 3159 2704 2518 2438 3462 2682 2018 1974 1289 891 784 765 704 672 576 657 1100 1889 1106 712 685 842 1158 1343 1239 1205 1234 1310 1465
0 0 0 0 11 45 62 105 248 468 443 441 544 825 853 822 788 949 1081 1134 1210 1359 1129 1073 1218 1325 1404 1592 1697 1770 1930 2203 2369 2487 2548 2482 2488 2519 2588 2813 2815 2683 2854 2878 2236 2301 2275 2547 2926 2669 3128 3362 2563 2175 2531 3102 3056 2299 2650 2478 2341 2431 2720 2784 1275 1055 930 1151 1507 687 586 497 638 590 709 715 635 674 712 825 996 1021 864 912 1004
0 0 0 0 3 21 38 79 110 313 161 389 487 710 750 731 738 943 1049 1048 1110 1501 1382 1349 1160 1146 1120 1224 1630 1670 1655 1862 2286 2433 2347 2187 2170 2129 2170 2440 2542 2495 2678 2956 2697 2264 2080 2314 2978 3025 3041 2876 2302 2330 2373 2772 3069 2761 2809 3596 2565 1990 1783 1004 1479 898 913 763 537 607 429 650 584 574 372 532 494 578 661 711 719 737 630 634 777
0 0 0 0 1 18 35 73 107 130 101 79 408 653 705 752 770 849 954 999 1177 1731 1540 1408 1602 1216 1151 1308 1579 1545 1526 1513 1951 2323 2205 2217 2071 1978 1876 1779 2009 2177 2392 2631 3154 2269 2074 2336 3015 2970 2859 2887 2899 2689 2543 2539 2646 2890 2503 2832 2636 2154 1799 1183 1323 1228 1073 782 993 468 649 596 550 485 681 513 898 738 553 601 653 538 488 372 622
0 0 0 0 0 12 24 69 109 111 88 50 130 546 683 807 844 864 881 925 1103 1459 1324 1345 1725 1171 1158 1334 1289 1288 1434 1394 1810 2181 2212 2198 1924 1873 1809 1776 1612 1717 2042 2416 2976 2631 2095 2869 3100 2996 2666 3034 3183 2780 2867 2940 2803 2445 2675 2510 2686 2716 1939 2190 822 2550 1992 2638 1238 1244 961 787 543 670 789 330 60 1115 914 52 405 504 517 269 179
243 54 4 0 0 7 31 64 92 89 74 36 196 415 609 840 917 943 938 895 940 1288 1382 1261 1477 1103 1192 1254 1219 1120 1220 1274 1293 1890 2236 2181 1889 1827 1703 1784 1792 1782 1787 2338 2806 2748 2246 2771 2925 3128 2958 3119 3719 3164 3122 3114 2815 2568 2477 2711 2729 3310 3175 1940 974 993 706 1239 1394 1446 1488 2257 1181 904 666 1357 171 33 252 235 103 368 237 179 133
194 144 62 0 0 18 44 55 64 74 60 33 34 335 528 830 947 986 1040 1072 852 1090 1258 995 1148 1121 1242 1204 1234 1142 1081 1100 986 1517 2077 2192 1981 1807 1823 1711 1854 2034 1907 2268 2580 2478 2674 2589 2564 2717 2897 2967 3337 3081 2630 2581 2570 2415 2858 2531 2794 4205 2116 1265 1415 1056 730 630 2012 2051 1886 1844 933 912 794 421 674 313 73 15 0 160 345 180 213
292 139 220 13 0 15 28 31 36 45 46 46 34 327 433 771 898 976 1082 1158 862 892 1244 1265 1032 1059 1243 1115 1255 1204 1124 1033 988 1325 1828 2015 2031 2017 2034 1890 1817 1989 2057 2014 2391 2310 3200 2868 2429 2517 2529 2792 3878 3100 2642 2603 2380 2176 2750 2851 2909 2676 2737 2373 1345 1770 1249 1316 1176 1101 1078 1153 884 1232 532 935 514 543 510 441 11 9 425 400 2
691 269 247 38 0 2 16 11 5 28 34 79 32 303 325 758 838 834 1007 1209 1003 793 1426 1314 1054 1029 1027 1032 1227 1179 1308 1177 1046 1076 1505 1863 1933 2100 2231 2063 1815 1750 1821 1770 2469 2356 2692 3091 2576 2760 2586 2794 3622 3099 2756 2766 2731 2496 2556 2594 3075 2432 2826 2919 1985 1601 1944 1859 1377 1501 836 431 606 774 612 672 768 823 816 814 672 361 452 350 382
777 597 465 354 3 0 0 0 0 3 11 66 63 356 379 767 890 701 797 1092 1118 826 1347 1329 1073 962 1072 1143 1325 1213 1238 1186 1206 1123 1319 1550 1554 1899 2207 2255 1947 1506 1501 2123 2560 2538 2670 3055 2932 2867 2762 3033 3679 3057 2769 2500 2620 2572 2618 3106 3112 2374 2144 2278 2813 2338 2392 2592 1723 1514 1054 919 1026 1017 1119 1102 848 557 894 670 688 362 502 493 312
672 551 480 466 398 0 0 0 0 0 5 62 106 318 445 673 987 769 678 844 1081 814 1317 1289 1110 1046 882 1268 1464 1418 1278 1176 1183 1265 1414 1546 1463 1586 1918 2061 1925 1460 1809 2257 2594 2690 2952 3047 3300 3056 2902 2732 2716 2567 2366 2875 2896 2690 2833 2991 2874 2669 2974 2815 2415 2268 1948 1896 1810 1534 1133 1200 1213 1132 1170 1131 762 630 611 667 926 1048 309 482 474
550 469 353 482 365 0 0 2 5 0 10 48 156 339 503 469 993 887 911 856 1068 888 1271 1253 1206 1090 1198 1275 1272 1512 1445 1232 1172 1370 1477 1638 1630 1690 2076 1992 1826 1556 1994 2479 2613 2539 2931 3012 3104 3071 2962 2718 2581 2436 3063 2691 2643 2799 2662 2806 2820 2807 2619 2581 2526 2220 2043 1982 1800 1761 1311 1153 1052 1110 1311 1227 914 520 609 732 1177 1874 1543 1243 560
522 489 324 390 469 7 0 1 20 8 11 33 213 489 566 500 761 862 1077 1156 1017 868 1234 1289 1200 1006 1401 1352 1309 1181 1518 1233 1115 1420 1494 1774 1826 1864 2291 2097 1942 1739 2069 2622 2652 2636 2703 2876 2963 2917 2972 2805 2646 2630 2534 3111 2812 2744 2488 2494 2979 2806 2622 2762 2805 2638 2345 2163 2030 1803 1292 1104 1204 1033 1226 1192 768 249 1082 931 1187 1317 2114 2088 1727
664 652 437 368 414 262 13 0 6 17 8 22 252 579 689 604 732 732 952 1404 1148 850 1243 1403 1162 1134 1157 1510 1521 1210 1486 1350 1288 1540 1762 1953 1965 1929 2338 2287 2127 1955 2181 2521 2481 2626 2646 2722 2751 2720 2735 2622 2706 2931 2835 3240 4129 3620 2699 2418 2546 2844 2636 2650 2678 2501 2367 2250 2195 1783 1346 1388 1166 1016 1345 1331 1172 1166 1191 1228 1074 919 1154 1789 2284
1209 942 683 583 686 721 69 12 1 14 6 17 277 639 748 727 838 762 788 1419 1362 996 1120 1575 1326 1279 1237 1324 1580 1704 1600 1499 1715 2032 2034 2121 2158 2098 2168 2367 2288 2128 2141 2154 2327 2422 2427 2458 2579 2719 2732 2617 2660 2550 2597 2869 3841 3158 3544 3227 2988 3312 2688 2468 2513 2472 2347 2196 2112 1892 1495 1180 1084 1161 1317 1476 1589 1711 1871 1716 1301 1091 886 1175 2168
1099 975 828 704 614 810 1022 1117 1364 36 0 80 307 672 769 776 970 908 849 1386 1474 1187 1118 1523 1620 1463 1462 1359 1437 1820 1758 1746 1869 2047 2128 2264 2367 2317 2156 2225 2270 2248 2162 2144 2333 2396 2355 2412 2444 2416 3052 3152 2981 2594 2838 3100 3551 3390 3217 3426 3398 3601 2972 2478 2533 2478 2315 2019 1784 1803 1674 1290 1218 1485 1097 1119 1560 1809 1657 1589 1260 1271 1414 1378 2062
1059 965 912 945 983 809 822 1285 1286 1518 406 242 352 709 795 804 1058 1122 1010 1410 1581 1388 1377 1354 1700 1669 1603 1561 1464 1683 1853 1803 1876 2042 2111 2215 2414 2498 2286 2109 2034 2019 1996 2072 2199 2370 2283 3415 2461 2373 2808 3209 3251 3147 3006 3432 3537 3608 3285 3066 3470 3719 3592 2993 2634 2506 2316 2067 2080 1980 1681 1370 1116 1007 887 1036 1136 1307 1199 1203 1716 1826 1388 1226 1789
1105 1032 960 995 862 814 708 1147 1223 883 953 677 494 756 897 853 1135 1208 1110 1450 1735 1533 1633 1591 1534 1804 1722 1722 1588 1665 1824 1750 1844 1942 2060 2068 2121 2398 2439 2336 2106 2058 1889 2039 2075 2248 2206 2646 2548 2466 2695 3074 3166 3248 3221 3418 3647 3601 3553 3257 3218 3449 3567 3379 2918 2613 2614 2636 2549 2442 2073 1894 1666 1238 1088 1746 1842 1936 1399 1174 2466 2610 2170 1432 2082
1266 1423 1102 1168 1223 986 996 1185 885 824 648 671 717 931 1056 973 1324 1444 1199 1487 1927 1814 1833 1871 1639 1689 1833 1846 1741 1703 1792 1737 1725 1793 1936 1954 1936 2017 2174 2319 2346 2256 2185 2034 2072 2055 2162 2227 2491 2469 2728 2942 3145 3115 3243 3328 3472 3425 3254 3227 3062 3188 3308 3319 3079 2800 2676 2649 2639 2567 2389 2168 1935 1592 1439 1829 1728 1619 2108 1466 1362 2531 3330 2402 2005
1091 1224 1093 1032 1162 922 903 1370 882 703 729 866 984 995 1176 1139 1303 1714 1528 1607 2023 2146 2022 2021 1984 1760 1886 1947 1937 1878 1844 1749 1624 1703 1759 1816 1832 1802 1884 1991 2192 2273 2330 2301 2223 2053 2021 2151 2398 2375 2538 2844 3030 3118 3098 3203 3266 3187 3016 3149 3116 3022 3186 3260 3368 3420 3247 3048 2852 2784 2678 2350 1870 1822 1609 1683 1598 1527 1508 1483 1454 1664 2041 2312 1713
962 1156 1108 1109 1280 1698 1336 1650 1380 981 1013 852 1085 1011 1231 1245 1291 1461 1554 1661 1953 2245 2315 2220 2187 1993 1937 2024 1994 2059 1986 1836 1658 1580 1633 1653 1645 1664 1562 1756 1907 2044 2045 2217 2286 2190 1964 2227 2364 2366 2478 2580 2764 2902 3051 3093 3162 3129 3006 3258 3265 3144 3027 3056 3110 3116 3141 3136 3216 3155 3081 2750 2123 1820 1634 1663 1818 1810 1744 1599 1461 1325 1287 1418 1804
986 1112 1112 1404 1284 1365 1227 1135 1216 1144 935 880 1061 938 1113 1251 1184 1270 1507 1512 1623 2052 2275 2327 2296 2232 2057 2079 2036 2087 2122 2024 1769 1640 1608 1590 1565 1438 1388 1495 1781 1837 1849 1920 2026 2046 2052 2343 2397 2402 2367 2524 2568 2644 2744 2936 2974 3015 2988 3172 3412 3314 3062 3046 3024 3056 3042 3004 2929 2857 2894 2566 2610 2517 2142 2111 2116 2119 2119 2118 2032 1988 2014 1781 1525
796 902 909 1099 1298 1336 1268 1232 1284 939 604 697 736 772 791 894 1258 1212 1234 1319 1644 1981 2132 2291 2354 2299 2164 2072 2102 2054 2120 2190 2017 1780 1721 1678 1660 1528 1258 1143 1288 1541 1628 1680 2068 2054 2084 2372 2471 2462 2381 2357 2407 2410 2460 2600 2673 2756 2821 2842 3057 3207 3248 3186 3011 2941 2996 2981 2950 2858 2822 2827 2736 2786 2700 2624 2453 2410 2207 2106 2105 2166 2149 2021 1788
650 729 881 1107 1275 1308 1344 1354 1154 1111 872 794 967 1196 1087 1032 1035 1011 1122 1230 1543 1869 2049 2133 2263 2240 2096 2100 2107 1947 2078 2132 2115 2028 1838 1841 1796 1627 1280 1124 1010 1113 1404 1551 1814 2043 2076 2210 2366 2371 2282 2173 2146 2223 2284 2284 2402 2507 2571 2644 2708 2729 2735 2868 2998 2904 3368 3034 3036 2969 2884 2747 2839 2748 2674 2677 2690 2622 2538 2344 2094 2102 2116 2038 1882
500 534 764 1015 988 991 1089 1145 1059 1050 1033 970 1011 1104 1019 859 1081 1140 1115 1175 1259 1657 1936 1973 1932 2111 2063 1825 1934 1894 1924 1954 2089 2101 2022 1880 1791 1667 1244 1044 990 837 1108 1380 1550 1878 2040 2056 2080 2087 2064 2047 2017 2009 2142 2168 2253 2414 2480 2532 2558 2528 2488 2594 2816 2987 2982 3098 3070 3049 2913 2719 2637 2736 2765 2760 2759 2733 2621 2532 2290 2124 2095 2098 2028
0 229 589 776 857 805 780 1018 992 996 981 933 872 954 1006 982 1164 1348 1437 1357 1406 1552 1811 1743 1610 1757 1860 1820 1822 1797 1622 1756 2033 2098 2046 1900 1706 1492 1188 890 866 882 764 1048 1372 1593 1748 1880 1994 2028 2047 2060 2042 1970 1982 2072 2115 2237 2423 2442 2403 2395 2378 2366 2602 2866 2983 3000 3052 3053 2912 2723 2552 2407 2467 2496 2520 2533 2513 2417 2272 2106 2144 2185 2076
0 64 414 615 885 764 881 889 912 966 840 674 717 720 848 1019 1062 1196 1501 1600 1575 1552 1643 1638 1550 1484 1544 1676 1612 1262 1205 1382 1441 1911 2066 1899 1686 1374 1138 1177 949 730 292 184 877 1176 1431 1554 1697 1838 1898 1898 1867 1832 1858 1947 1959 1977 2054 2313 2383 2396 2368 2298 2285 2464 2697 2854 2915 2873 2722 2621 2552 2493 2408 2333 2317 2345 2327 2284 2223 2190 2198 2202 2148
456 493 553 470 678 686 543 534 836 841 849 836 803 741 845 912 1156 1208 1260 1337 1466 1468 1481 1587 1576 1559 1402 1189 1188 1336 1440 1497 1872 1965 1964 1902 1666 1486 1340 1168 1213 900 605 638 523 457 1026 1328 1444 1548 1662 1702 1725 1760 1822 1880 1869 1831 1723 1662 1998 2267 2321 2312 2242 2142 2107 2200 2340 2406 2394 2288 2131 2756 2578 2474 2261 2279 2127 2138 2141 2141 2183 2221 2203
637 806 779 716 669 686 610 526 454 638 762 726 681 791 829 821 870 967 1095 1167 1204 1232 1321 1487 1556 1622 1642 1262 1140 1210 1223 1213 1441 1770 1896 1884 1741 1601 1426 1252 1267 1133 1054 623 644 311 412 947 1240 1322 1400 1482 1536 1562 1703 1835 1864 1788 1679 1575 1560 1660 1855 2000 2043 2002 1932 1870 1820 1732 1665 2502 3113 3204 2706 2198 2026 2172 2643 2229 2003 1987 2022 2072 2105
620 777 753 634 649 612 579 362 466 520 488 435 412 438 609 786 857 930 956 1052 1038 1032 1044 1073 1313 1429 1472 1376 1504 1588 1681 1573 1221 1285 1353 1434 1766 1721 1280 1251 1332 1349 1103 1176 630 655 548 354 956 1228 1294 1315 1326 1338 1362 1467 1741 1873 1768 1658 1587 1580 1614 1676 1720 1732 1698 1702 1714 1650 1445 1619 2878 3232 3072 2587 1958 1674 1637 2064 2460 2352 2209 1873 1870
712 669 632 564 541 530 499 545 416 277 492 453 390 134 338 765 753 734 693 895 920 982 988 1135 1322 1421 1447 1498 1502 1577 1682 1877 2220 2330 2189 2030 1973 1759 1527 1315 1335 1337 1453 1372 1055 858 785 683 551 861 1203 1327 1322 1297 1281 1313 1359 1482 1698 1735 1602 1546 1483 1410 1375 1394 1447 1479 1388 1345 1257 1136 1014 988 1134 1456 1931 2173 2013 1722 1571 1728 2080 2238 2148
663 506 469 478 455 487 461 484 467 406 105 271 356 238 440 467 468 544 534 776 840 921 1076 1024 1047 1379 1508 1591 1620 1580 1543 1694 1797 1818 2100 2198 2137 2052 1859 1678 1578 1562 1535 1565 1530 1472 1183 1072 1070 1141 889 891 1162 1293 1273 1270 1280 1311 1309 1397 1463 1443 1380 1322 1272 1217 1162 1124 1126 1111 1090 886 886 1462 1810 1238 933 893 1165 1522 1640 1568 1452 1500 1870
209 206 412 394 299 312 370 369 381 395 380 332 300 302 351 405 383 434 430 472 669 826 890 851 957 1061 1217 1430 1506 1488 1414 1420 1550 1672 1543 1597 1687 2036 2201 2245 2183 2008 1879 1800 1810 1659 1503 1421 1341 1299 1210 1284 1256 1164 1094 1153 1230 1318 1372 1336 1324 1368 1388 1341 1293 1242 1153 1028 912 823 784 762 474 433 567 570 469 460 560 784 942 977 931 963 1035
175 157 79 117 123 150 195 231 319 345 336 268 240 230 229 282 370 379 385 412 439 540 677 717 772 892 1049 1133 1273 1401 1420 1388 1296 1285 1286 1250 1203 1457 1842 2167 2260 2306 2246 2163 2180 2068 1909 1638 1516 1381 1298 1186 1144 1234 1261 1110 1049 1114 1279 1411 1480 1487 1475 1469 1456 1411 1327 1215 978 446 224 234 213 174 177 324 153 62 61 156 327 501 662 708 717
216 202 178 198 175 150 135 166 181 180 216 241 307 298 247 209 282 359 348 378 371 419 466 445 418 633 735 815 901 1036 1104 1223 1308 1370 1323 1279 1255 1195 1128 1482 1914 1598 1546 1906 2213 2041 1856 1790 1696 1567 1396 1347 1284 1203 1212 1242 1205 1050 976 986 1054 1091 1089 1097 1280 1460 1499 1470 1390 1212 816 144 135 105 292 275 585 536 166 105 142 261 423 622 689
315 285 245 214 273 281 303 237 205 217 266 284 269 299 341 366 388 412 432 420 356 369 401 380 457 604 740 795 754 677 816 976 972 988 1144 1257 1252 1242 1206 1367 1306 1378 1478 1478 1448 1572 1655 1667 1667 1650 1593 1528 1390 1319 1247 1182 1205 1314 1385 1304 1163 1055 974 923 891 859 1070 1242 1293 1279 1219 1116 1018 821 314 2 0 228 422 399 353 398 484 510 618
309 303 306 335 284 291 290 310 335 298 292 286 274 252 225 227 140 23 259 294 331 393 362 338 362 375 404 487 577 606 582 586 693 878 934 1018 1072 1101 1127 1133 1093 1090 1297 1372 1490 1464 1392 1445 1204 1166 1878 1971 1836 1624 1517 1493 1497 1484 1554 1639 1655 1596 1495 1416 1418 1407 1368 1282 1166 1036 1186 956 871 784 585 0 0 0 154 290 345 408 447 500 695
273 280 322 277 261 215 211 203 213 206 220 247 255 246 209 151 137 121 153 176 208 231 226 290 305 308 334 406 454 512 554 511 428 485 679 764 870 899 916 925 978 994 1316 1230 1140 885 1049 1268 1518 1615 1643 1793 1835 1709 1692 1808 1754 1695 1642 1602 1557 1530 1515 1541 1529 1516 1471 1352 1274 1164 1328 1019 852 436 12 0 0 0 197 362 388 473 508 546 584
260 225 269 220 165 133 158 174 133 118 81 6 6 133 153 149 154 142 132 140 90 136 153 190 208 260 298 323 361 398 391 374 328 300 362 513 614 703 834 840 833 858 830 882 1215 1285 1129 1098 1363 1512 1517 1678 1671 1577 1484 1535 1602 1596 1639 1639 1635 1544 1484 1430 1369 1307 1278 1291 1342 1361 1333 1223 1103 835 295 0 0 0 146 266 511 560 604 650 648
118 132 134 125 38 0 0 0 40 0 0 0 0 0 0 0 0 45 82 44 72 51 0 81 99 147 189 226 267 293 346 396 402 357 338 379 463 547 600 593 626 723 771 774 759 920 714 707 766 1063 1095 1168 1140 1356 1316 1208 1191 1234 1333 1431 1510 1519 1473 1423 1349 1234 1159 1128 1085 1045 1054 1108 1114 1063 866 335 0 0 439 888 924 887 850 756 718
0 0 0 0 0 0 0 0 0 0 0 0 0 0 0 0 0 0 0 0 0 0 0 0 0 0 0 87 136 189 240 312 346 356 365 377 391 408 407 452 478 494 524 596 567 778 680 558 609 794 849 1193 1386 1480 1293 1379 1264 1142 1122 1141 1202 1271 1319 1310 1289 1273 1309 1331 1278 1188 1126 1127 1117 1080 1046 1209 1123 1000 958 1032 1104 1148 1218 1273 1299
0 98 0 0 0 0 0 0 0 0 0 0 0 0 0 0 0 0 0 0 0 0 0 0 0 0 0 0 0 0 32 105 124 144 169 214 293 336 308 305 281 282 331 381 407 553 1021 848 497 644 1027 792 823 1378 1627 1412 1302 1198 1154 1160 1108 1106 1121 1201 1231 1262 1280 1307 1326 1306 1275 1240 1230 1236 1225 1178 1154 1338 1326 1346 1339 1303 1280 1318 1429
0 14 11 0 0 0 0 0 0 0 0 0 0 0 0 0 0 0 0 0 0 0 0 0 0 0 0 0 0 0 0 0 0 0 60 63 71 108 177 247 290 303 316 337 388 414 614 991 1118 1160 865 673 608 605 853 1006 1110 1119 1215 1394 1433 1437 1458 1470 1433 1421 1410 1430 1477 1484 1473 1460 1428 1406 1369 1294 1206 1120 1021 978 999 930 833 776 978
0 8 0 0 0 0 0 6 0 0 0 0 0 0 0 0 0 0 0 0 0 0 0 0 0 0 0 0 0 0 0 0 0 0 0 0 0 0 0 18 28 35 117 155 188 365 874 1125 973 942 1065 818 437 464 788 791 876 1188 1295 1280 1063 1015 1188 1256 1263 1299 1334 1370 1383 1409 1441 1461 1456 1452 1410 1365 1335 1314 1268 1249 1196 1094 931 890 946
0 0 0 0 0 2 3 0 0 0 0 0 0 0 0 0 0 0 0 0 0 0 0 0 0 0 0 0 0 0 0 0 0 0 0 0 0 0 0 0 0 0 0 0 0 206 79 115 43 50 4 190 258 0 70 370 1272 1346 1386 821 470 623 833 905 946 969 1022 1094 1133 1192 1240 1290 1338 1422 1462 1518 1556 1552 1503 1408 1335 1283 1256 1206 1150
0 0 0 0 0 0 1 2 0 0 0 0 0 0 0 0 0 0 0 0 0 0 0 0 0 0 0 0 0 0 0 0 0 0 0 0 0 0 0 0 0 0 0 0 0 0 0 0 0 0 0 0 0 0 0 20 100 701 693 424 177 414 530 604 701 752 788 834 895 945 1039 1215 1293 1362 1408 1442 1435 1428 1409 1427 1454 1429 1403 1378 1344
0 0 0 0 0 0 0 0 0 0 2 0 0 0 0 0 0 0 0 0 0 0 0 0 0 0 0 0 0 0 0 0 0 0 0 0 0 0 0 0 0 0 0 0 0 0 0 0 0 0 0 0 0 0 0 0 0 7 2 0 0 0 134 342 452 500 520 574 591 642 660 683 740 855 933 939 871 780 770 949 1136 1180 1206 1186 1181
0 0 0 0 0 0 0 0 1 0 0 0 0 0 0 0 0 0 0 0 0 0 0 0 0 0 0 0 0 0 0 0 0 0 0 0 0 0 0 0 0 0 0 0 0 0 0 0 0 0 0 0 0 0 0 0 0 0 0 0 0 0 0 0 0 68 268 318 345 333 397 426 455 566 581 536 428 203 206 117 107 108 88 368 875
0 0 0 0 0 0 0 0 0 0 0 0 0 0 0 0 0 0 0 0 0 0 0 0 0 0 0 0 0 0 0 0 0 0 0 0 0 0 0 0 0 0 0 0 0 0 0 0 0 0 0 0 0 0 0 0 0 0 0 0 0 0 0 0 0 0 0 0 62 129 143 129 72 85 112 141 121 20 62 127 173 152 108 206 378
0 0 0 0 0 0 0 0 0 0 0 0 0 0 0 0 0 0 0 0 0 1 0 0 0 0 0 0 0 0 0 0 0 0 0 0 0 0 0 0 0 0 0 0 0 0 0 0 0 0 0 0 0 0 0 0 0 0 0 0 0 0 0 0 0 0 0 0 0 0 0 0 0 0 1 0 0 0 3 19 55 94 209 327 324
Wind_Speed
nan nan nan nan nan nan 7 5 3 3 6 6 6 4 2 2 4 3 4 3 3 2 2 3 4 5 6 5 6 7 5 6 7 8 8 9 9 9 10 10 11 12 11 9 9 9 9 11 11 10 9 9 10 10 11 11 11 11 10 9 10 12 13 12 12 10 7 8 9 9 10 11 10 11 13 12 12 15 15 15 15 13 13 14 15
nan nan nan nan nan nan 8 6 4 5 5 7 6 4 3 3 3 4 6 5 4 3 2 3 5 5 4 5 6 6 5 5 6 7 7 8 8 9 9 9 9 10 10 9 8 7 7 8 9 9 8 9 9 10 10 10 9 10 10 10 11 11 13 13 12 10 10 9 9 10 10 11 11 11 14 14 13 13 14 15 14 13 13 15 15
nan nan nan nan nan nan nan 6 5 5 5 7 7 6 4 3 4 5 6 6 6 6 5 4 7 7 6 6 4 7 9 7 7 7 6 7 8 8 8 8 8 9 9 8 7 7 7 7 8 9 8 8 8 9 10 10 10 11 11 10 13 12 12 13 13 9 10 8 8 8 10 8 9 11 14 15 14 11 11 14 14 12 13 13 14
nan nan nan nan nan nan nan nan 6 5 5 7 8 6 4 4 4 5 6 7 7 7 6 6 5 7 7 4 6 6 7 7 8 8 7 6 7 8 8 8 8 9 10 9 7 7 7 7 8 9 10 8 7 8 10 12 11 13 12 11 10 12 11 12 11 10 7 6 8 9 10 8 9 12 15 16 12 12 11 13 11 11 11 12 10
nan nan nan nan nan nan nan nan 7 6 5 nan 7 6 5 3 2 3 4 5 6 7 5 6 5 8 9 10 10 11 12 9 7 7 7 7 7 7 7 7 8 9 10 9 8 7 8 8 8 10 11 10 9 9 10 12 12 12 12 11 10 10 13 11 11 10 9 9 7 7 9 8 9 11 13 16 11 9 12 12 9 9 9 11 11
nan nan nan nan nan nan nan nan 6 6 nan nan 7 6 6 4 4 4 5 5 4 6 6 5 4 4 5 4 5 7 7 7 7 5 6 6 7 6 6 6 6 8 9 9 8 7 8 9 9 10 11 12 11 12 12 13 14 14 13 11 11 10 10 12 11 10 9 10 7 7 8 9 10 10 9 12 nan 8 9 nan 8 9 8 10 11
13 nan nan nan nan nan nan nan nan nan nan nan 7 6 7 6 5 5 5 5 4 5 5 5 6 5 2 1 2 3 4 8 9 8 6 6 5 5 4 5 5 6 8 9 9 8 8 8 10 10 11 12 12 13 14 13 14 13 12 11 11 10 8 9 10 12 11 9 7 7 9 10 8 8 12 10 9 nan 8 5 7 9 8 8 10
12 8 nan nan nan nan nan nan nan nan nan nan nan 7 7 6 6 6 7 6 5 5 5 5 5 5 5 4 3 3 3 5 5 6 7 6 4 5 4 4 5 6 7 8 8 8 8 9 10 10 11 12 12 13 14 14 14 14 12 10 9 8 7 7 8 8 7 10 10 9 9 10 9 9 10 9 7 7 nan nan nan 6 7 7 9
12 10 9 nan nan nan nan nan nan nan nan nan nan 7 8 7 7 8 7 7 5 5 4 5 5 4 4 5 4 5 3 4 4 4 5 6 4 6 5 5 5 5 6 7 8 8 8 9 10 10 10 12 12 13 13 13 13 13 12 10 9 8 8 7 7 7 7 8 9 8 8 10 10 9 10 8 8 8 8 5 nan nan 6 9 nan
15 12 11 nan nan nan nan nan nan nan nan nan nan 8 9 9 7 8 8 8 6 6 6 5 4 5 5 6 5 6 7 6 5 4 5 5 4 5 5 5 5 4 6 7 7 8 9 9 10 9 9 10 11 12 12 12 12 12 11 10 8 8 7 6 7 7 7 8 7 7 8 10 9 10 10 12 10 6 6 7 4 2 4 8 7
14 12 11 11 nan nan nan nan nan nan nan nan nan 8 9 9 8 8 8 9 7 7 7 6 5 4 5 5 6 6 6 6 6 7 6 5 4 5 5 5 4 5 4 6 7 8 9 10 9 9 8 9 9 9 10 9 11 10 10 8 9 8 9 8 7 7 7 8 7 6 9 9 6 8 13 11 9 8 9 9 7 3 3 6 8
10 10 10 11 11 nan nan nan nan nan nan nan 8 8 9 9 9 8 8 9 8 8 8 7 6 5 6 5 6 6 5 6 4 5 6 5 4 5 6 5 5 4 4 5 6 7 8 9 10 8 8 9 9 9 9 7 7 8 8 8 9 9 9 7 7 8 9 9 10 7 9 9 7 7 9 9 8 8 5 7 9 7 3 4 6
7 8 10 11 11 nan nan nan nan nan nan nan 9 7 8 8 9 10 7 8 9 8 7 7 7 6 6 6 7 8 6 5 5 6 7 6 6 7 7 6 6 5 4 4 6 6 7 8 8 8 9 9 9 8 9 7 5 7 7 8 9 10 9 8 9 10 8 9 10 9 9 10 10 9 8 10 8 5 3 6 7 5 4 4 3
6 8 10 12 14 nan nan nan nan nan nan nan 9 7 7 6 8 9 7 8 9 9 8 7 7 7 7 7 7 8 8 7 8 6 6 7 7 6 6 6 6 6 5 5 5 6 8 8 7 8 8 8 8 8 8 7 6 6 7 8 9 9 9 9 9 9 9 9 7 9 10 10 12 13 13 12 8 5 7 5 5 7 5 6 4
9 10 9 12 15 15 nan nan nan nan nan nan 8 6 6 6 6 7 8 8 9 8 9 7 8 8 8 8 9 9 9 8 9 8 6 6 6 6 7 8 7 7 6 6 6 7 7 7 7 7 8 8 7 7 7 8 8 8 7 8 10 9 9 9 10 9 10 10 10 10 10 9 10 13 15 15 10 9 4 2 4 6 8 8 8
17 15 14 17 19 21 nan nan nan nan nan nan 8 6 5 6 5 6 7 7 8 8 7 8 7 9 9 8 8 10 11 10 10 10 8 6 6 6 7 8 8 8 7 6 7 7 7 7 6 6 7 6 6 6 6 7 7 7 7 7 9 9 9 9 9 10 10 10 10 10 9 9 8 10 11 11 10 8 7 7 7 7 5 6 7
34 34 35 38 39 36 28 23 18 nan nan nan 9 8 7 7 6 5 6 6 6 6 6 8 8 9 8 7 8 11 10 10 9 9 8 8 7 6 6 7 9 9 8 8 7 7 6 6 5 6 7 6 6 6 6 7 7 7 8 8 9 10 8 8 8 9 10 10 11 11 11 9 8 8 9 9 9 8 7 6 5 5 5 7 5
25 25 26 26 25 21 18 19 22 20 13 11 11 10 8 8 8 7 6 5 6 6 6 7 8 8 9 8 8 9 10 10 10 9 9 8 8 7 7 8 8 8 8 8 7 6 7 6 6 7 7 7 7 7 7 7 6 7 8 8 9 9 8 8 8 7 9 9 9 11 10 11 8 8 9 9 9 9 9 7 7 6 6 6 5
18 20 22 21 19 20 22 25 24 19 17 16 14 12 10 8 9 9 7 4 5 7 8 9 9 10 10 9 8 9 11 11 12 12 12 10 8 8 7 6 8 9 9 9 8 9 8 8 8 8 9 9 8 8 8 7 7 6 7 8 9 9 8 8 8 7 7 7 8 9 10 10 8 8 9 8 9 9 10 8 8 7 6 6 6
18 21 19 18 19 22 24 20 18 18 23 22 20 19 12 10 10 9 8 8 8 8 10 10 10 11 12 13 12 11 11 12 13 14 13 12 11 9 9 9 8 9 10 10 10 11 10 9 10 9 9 9 8 8 8 7 7 7 7 7 8 8 8 7 8 7 7 8 8 9 8 8 9 8 8 8 9 10 9 9 8 7 6 6 8
19 19 16 13 13 17 20 21 21 23 30 28 25 23 19 14 12 13 12 13 12 11 11 12 14 13 15 13 13 12 11 12 13 14 15 14 13 12 11 10 12 11 12 11 11 12 12 11 10 9 8 8 8 8 8 8 7 7 7 7 8 7 7 7 7 8 8 7 8 8 9 8 7 8 7 7 9 9 10 10 9 8 6 6 7
24 20 18 21 19 22 25 31 31 29 27 21 25 31 30 26 24 23 21 21 18 17 16 16 15 15 15 15 14 14 12 12 12 14 14 14 14 13 12 13 11 11 12 11 11 12 12 11 10 9 9 8 7 7 7 7 7 7 8 7 7 7 8 7 7 7 7 7 7 7 8 8 7 7 8 10 9 10 10 10 10 8 8 8 8
28 26 23 22 25 21 24 24 25 23 23 26 31 31 29 26 29 33 35 34 31 24 22 20 18 17 15 14 16 16 15 13 11 12 11 12 13 13 13 12 11 11 12 11 10 9 10 10 10 9 8 8 6 6 6 5 5 5 5 6 6 7 7 8 7 6 7 7 8 7 7 7 8 8 8 9 10 9 10 9 9 9 8 7 8
28 29 27 24 25 22 19 19 17 22 25 25 26 28 29 31 34 35 30 24 19 17 19 19 17 19 21 20 17 17 16 14 11 11 10 10 10 12 12 12 11 11 10 11 10 9 8 8 7 7 7 7 6 5 4 4 3 3 4 4 5 6 6 6 6 6 7 8 8 8 8 8 8 7 8 9 9 9 9 8 9 9 9 8 7
30 31 31 28 26 26 22 16 18 22 23 24 25 28 29 30 29 28 23 20 18 19 21 23 22 24 26 27 27 21 16 14 13 12 11 10 10 10 11 10 11 11 11 11 11 10 9 8 6 6 6 6 5 4 3 3 3 3 3 3 4 5 6 6 6 6 7 7 8 8 8 8 8 7 8 8 8 8 8 9 8 9 9 8 8
30 31 32 31 28 27 28 25 21 20 20 20 22 23 24 25 25 25 26 24 23 25 25 24 23 25 23 22 19 22 27 24 17 17 17 18 19 16 13 10 10 10 11 11 10 11 10 8 7 6 5 5 5 5 4 3 3 3 4 4 5 5 5 6 7 7 8 8 8 7 8 8 8 7 7 7 8 7 8 7 8 8 9 9 9
nan 30 30 33 33 32 32 31 26 24 23 23 23 23 23 22 20 20 23 25 27 27 26 25 24 24 22 18 18 18 21 24 26 22 20 20 20 21 19 16 11 9 9 10 10 11 11 10 8 8 6 6 6 6 5 5 5 5 4 5 5 6 7 8 9 8 8 9 9 9 8 8 8 7 7 7 7 7 7 7 7 7 9 10 9
nan nan 32 33 32 33 33 32 30 29 27 28 30 29 27 24 20 16 18 23 25 26 29 30 28 24 22 21 20 20 21 22 23 24 24 22 21 20 21 20 17 12 9 10 10 10 10 11 9 9 8 8 8 8 8 8 7 7 8 8 8 8 8 9 10 10 10 10 10 10 10 9 9 9 8 8 8 7 8 7 7 8 8 9 9
31 31 32 32 33 33 32 31 32 33 33 34 32 31 29 27 22 18 18 22 25 28 31 31 31 26 23 22 20 22 24 22 21 22 24 23 22 22 21 20 21 16 12 11 10 11 11 10 10 10 10 10 10 10 10 10 9 9 10 10 10 10 10 11 12 12 12 12 12 12 12 11 11 7 5 6 7 8 10 9 8 10 9 9 8
29 29 31 32 33 34 33 33 34 33 32 31 30 29 28 27 24 24 23 24 26 27 29 31 33 29 26 25 24 23 23 23 23 23 23 25 24 24 24 23 22 22 19 14 15 15 14 13 12 12 11 11 11 12 11 9 10 11 10 10 11 11 12 13 13 14 15 15 14 14 14 9 8 6 6 5 4 4 6 9 10 12 11 12 11
30 29 32 32 32 31 33 36 37 34 32 30 30 27 25 24 24 25 23 24 26 26 26 29 32 31 30 29 28 27 27 27 27 27 26 26 27 27 25 24 24 23 24 23 20 17 16 17 16 15 14 14 14 14 10 10 9 9 11 12 11 12 13 13 14 14 14 16 17 17 17 15 13 12 12 8 7 7 7 6 5 8 11 13 13
31 31 32 33 33 32 33 37 37 35 35 33 32 32 30 25 26 28 23 22 25 25 26 27 28 30 31 30 31 31 31 31 31 30 27 25 26 27 27 26 24 24 24 24 25 24 23 22 21 20 19 18 18 16 12 11 10 8 10 13 14 14 14 13 14 14 14 15 15 16 17 17 17 16 17 17 14 11 9 8 7 7 7 7 10
30 33 33 33 33 32 32 34 34 35 36 33 30 32 31 26 26 26 25 24 24 24 25 27 28 28 28 28 29 29 29 30 31 31 31 29 29 30 30 28 26 25 25 26 24 24 24 25 27 27 25 23 21 19 16 14 11 10 9 11 14 14 14 13 13 13 13 14 14 15 15 16 17 13 14 17 18 17 15 11 9 10 11 11 11
34 35 34 33 33 33 34 34 33 35 38 36 34 34 32 30 28 26 27 27 25 23 24 25 25 26 26 27 28 28 28 29 30 31 33 33 33 32 30 30 30 29 27 27 26 26 25 26 26 27 26 26 26 26 20 15 13 12 11 13 15 14 14 13 13 13 13 13 14 15 15 15 17 18 18 19 20 20 20 20 19 18 16 13 9
34 36 nan 35 34 35 36 38 37 36 35 36 36 34 33 33 31 31 28 28 27 27 26 23 21 21 23 25 29 31 31 30 31 33 34 34 35 34 34 33 33 31 29 28 27 27 27 27 27 28 29 28 26 24 26 22 19 17 15 19 19 20 20 20 18 16 15 14 14 15 15 15 16 18 19 18 19 nan nan 18 18 18 18 18 17
31 34 36 36 36 36 39 38 36 39 39 37 35 33 33 32 31 32 32 31 30 29 27 24 23 22 22 23 25 28 30 30 31 32 34 34 34 34 34 33 33 33 30 29 28 28 28 28 29 30 31 30 27 23 27 26 25 23 25 25 23 20 18 17 18 20 20 19 19 18 18 18 18 18 16 14 16 20 22 20 19 18 19 19 18
33 34 35 34 35 39 41 40 39 39 40 40 39 39 37 35 34 35 36 35 34 33 31 30 28 26 24 24 25 26 27 27 27 28 30 32 33 33 33 32 33 32 31 30 30 29 30 31 31 32 32 30 29 27 31 32 32 33 32 30 28 25 23 20 18 18 19 20 20 20 20 19 18 18 16 nan nan 18 22 20 20 19 19 18 17
37 37 37 37 37 39 41 41 41 42 41 42 42 41 40 38 37 nan 36 35 35 34 33 33 31 28 26 26 26 26 25 26 26 25 25 27 28 30 32 33 33 32 32 33 34 36 38 39 39 38 35 33 32 33 34 34 35 33 33 33 31 28 26 24 22 22 22 20 19 16 18 20 18 17 16 nan nan nan 22 20 21 20 19 17 16
41 40 41 40 39 40 40 42 43 44 42 43 44 44 42 41 40 39 38 37 36 36 36 35 33 31 31 32 30 26 24 26 25 23 22 23 23 24 26 30 33 34 34 36 37 38 37 35 32 33 30 32 33 35 33 32 33 30 31 31 30 28 26 25 24 22 22 21 20 18 14 15 18 18 nan nan nan nan 23 22 22 23 19 16 17
45 44 42 43 43 45 44 44 43 41 nan nan nan 44 44 43 42 40 40 39 nan 36 36 36 35 34 34 36 36 34 30 28 26 23 23 22 21 21 22 24 28 31 35 35 34 35 37 37 35 34 31 33 34 35 35 34 31 29 28 31 31 30 27 25 25 24 23 22 20 20 19 16 14 15 17 nan nan nan 25 24 25 23 19 15 19
48 48 48 49 nan nan nan nan nan nan nan nan nan nan nan nan nan nan nan nan nan nan nan nan nan 37 37 36 36 36 34 31 29 26 24 24 24 22 21 22 23 26 29 32 34 33 35 34 32 30 33 36 36 33 32 34 31 28 28 31 29 27 26 26 28 28 27 25 24 24 25 23 19 18 17 18 nan nan 27 27 26 23 20 18 22
nan nan nan nan nan nan nan nan nan nan nan nan nan nan nan nan nan nan nan nan nan nan nan nan nan nan nan nan 38 37 37 35 32 31 30 28 27 26 24 24 24 25 27 29 28 27 28 27 28 28 31 35 36 34 34 35 33 28 28 27 28 25 26 28 27 29 29 28 27 28 29 28 27 27 29 29 28 30 31 32 26 22 18 19 21
nan nan nan nan nan nan nan nan nan nan nan nan nan nan nan nan nan nan nan nan nan nan nan nan nan nan nan nan nan nan nan 38 36 35 34 33 32 31 29 28 27 27 28 28 29 27 27 25 24 26 28 30 33 36 36 36 33 29 26 26 23 24 24 27 27 28 31 32 34 33 31 29 32 32 30 28 29 29 32 31 27 27 25 22 24
nan nan nan nan nan nan nan nan nan nan nan nan nan nan nan nan nan nan nan nan nan nan nan nan nan nan nan nan nan nan nan nan nan nan nan nan nan 35 34 33 31 30 31 31 30 30 29 27 28 31 29 31 32 31 31 31 30 27 25 24 23 21 23 27 29 29 31 33 34 34 34 35 34 33 32 31 29 27 27 26 29 29 29 30 32
nan nan nan nan nan nan nan nan nan nan nan nan nan nan nan nan nan nan nan nan nan nan nan nan nan nan nan nan nan nan nan nan nan nan nan nan nan nan nan nan nan nan 37 35 33 33 32 33 34 34 33 32 29 29 29 27 23 22 22 21 20 20 20 25 29 29 31 32 31 29 28 27 28 27 24 26 28 26 24 25 26 29 33 35 34
nan nan nan nan nan nan nan nan nan nan nan nan nan nan nan nan nan nan nan nan nan nan nan nan nan nan nan nan nan nan nan nan nan nan nan nan nan nan nan nan nan nan nan nan nan 42 nan 40 nan nan nan 33 33 nan nan 29 28 25 25 25 23 24 23 24 25 25 24 25 26 27 26 27 28 30 31 33 32 31 29 27 27 32 37 35 36
nan nan nan nan nan nan nan nan nan nan nan nan nan nan nan nan nan nan nan nan nan nan nan nan nan nan nan nan nan nan nan nan nan nan nan nan nan nan nan nan nan nan nan nan nan nan nan nan nan nan nan nan nan nan nan nan 32 31 31 30 30 27 25 26 28 26 26 27 28 30 30 28 28 26 27 28 29 29 31 33 34 35 35 35 35
nan nan nan nan nan nan nan nan nan nan nan nan nan nan nan nan nan nan nan nan nan nan nan nan nan nan nan nan nan nan nan nan nan nan nan nan nan nan nan nan nan nan nan nan nan nan nan nan nan nan nan nan nan nan nan nan nan nan nan nan nan nan 29 29 27 28 28 27 28 29 28 30 31 31 32 34 34 33 32 33 34 35 34 33 31
nan nan nan nan nan nan nan nan nan nan nan nan nan nan nan nan nan nan nan nan nan nan nan nan nan nan nan nan nan nan nan nan nan nan nan nan nan nan nan nan nan nan nan nan nan nan nan nan nan nan nan nan nan nan nan nan nan nan nan nan nan nan nan nan nan nan 28 27 28 27 28 29 31 31 31 30 31 32 33 34 34 35 nan 32 31
nan nan nan nan nan nan nan nan nan nan nan nan nan nan nan nan nan nan nan nan nan nan nan nan nan nan nan nan nan nan nan nan nan nan nan nan nan nan nan nan nan nan nan nan nan nan nan nan nan nan nan nan nan nan nan nan nan nan nan nan nan nan nan nan nan nan nan nan nan 29 28 29 nan nan 31 30 30 nan nan 32 34 34 33 31 30
nan nan nan nan nan nan nan nan nan nan nan nan nan nan nan nan nan nan nan nan nan nan nan nan nan nan nan nan nan nan nan nan nan nan nan nan nan nan nan nan nan nan nan nan nan nan nan nan nan nan nan nan nan nan nan nan nan nan nan nan nan nan nan nan nan nan nan nan nan nan nan nan nan nan nan nan nan nan nan nan nan nan 33 31 30
Wind_Direction
nan nan nan nan nan nan 293 280 261 230 230 237 237 238 228 215 212 186 147 135 125 127 130 132 145 156 152 127 119 120 107 103 105 106 105 100 102 106 105 105 108 108 109 106 102 101 100 100 105 106 103 103 102 100 101 102 107 112 116 117 121 124 114 108 99 102 103 92 102 92 98 92 92 95 93 96 95 98 100 95 90 88 83 83 80
nan nan nan nan nan nan 295 280 262 256 231 249 254 263 233 213 218 183 166 154 146 133 145 151 137 123 131 122 133 129 122 109 113 107 98 101 104 108 111 112 109 106 110 113 110 101 95 94 97 96 103 100 103 105 105 110 112 117 120 124 116 115 113 109 103 102 107 83 81 88 94 98 94 106 105 101 95 92 87 88 92 87 86 86 88
nan nan nan nan nan nan nan 291 290 291 274 272 261 261 249 223 207 186 171 169 157 149 169 165 150 146 147 141 140 150 147 133 127 116 111 103 103 109 116 118 115 110 112 110 106 103 96 93 94 98 97 100 109 112 119 119 120 113 116 116 124 119 108 103 98 92 91 90 87 89 91 88 104 121 111 102 96 90 85 82 82 87 91 89 88
nan nan nan nan nan nan nan nan 293 273 260 256 257 270 250 225 212 203 184 181 168 154 161 170 158 148 153 156 152 162 150 147 145 141 137 122 109 114 119 116 118 115 113 111 114 105 98 91 100 101 97 101 98 106 115 118 119 117 118 117 119 122 120 110 96 92 82 68 85 83 92 90 117 115 108 105 97 97 85 74 75 84 90 98 100
nan nan nan nan nan nan nan nan 286 280 266 nan 262 264 244 270 247 236 213 198 178 161 157 171 178 171 175 182 179 178 172 161 155 145 130 116 120 115 106 114 113 113 113 112 122 104 100 101 106 103 103 108 112 110 108 107 109 107 108 114 114 112 120 113 106 98 85 73 65 92 103 105 95 105 118 108 117 106 91 79 76 75 80 83 88
nan nan nan nan nan nan nan nan 291 280 nan nan 271 267 264 255 238 234 220 214 203 171 153 166 170 182 194 196 175 161 153 142 122 115 117 107 97 114 122 110 107 110 111 113 120 111 105 108 109 107 108 111 110 105 107 114 114 112 105 106 109 112 110 115 108 105 97 100 93 87 80 102 111 108 110 110 nan 99 104 nan 78 74 73 73 90
193 nan nan nan nan nan nan nan nan nan nan nan 267 258 265 252 242 235 227 217 222 193 162 154 174 176 184 175 159 130 123 125 133 134 129 124 131 112 107 110 108 107 111 114 116 114 113 114 109 112 110 108 107 103 106 104 105 106 113 111 106 115 113 107 109 100 119 95 103 105 102 97 89 108 103 107 126 nan 137 112 105 97 76 82 91
196 195 nan nan nan nan nan nan nan nan nan nan nan 260 264 257 247 235 221 223 216 211 176 149 172 172 174 174 166 145 116 109 118 126 145 145 135 118 128 110 107 115 116 117 123 120 123 121 114 113 113 108 104 95 98 105 113 117 111 110 117 114 106 110 105 109 98 99 113 118 118 109 109 104 92 112 120 134 nan nan nan 91 101 93 96
200 197 199 nan nan nan nan nan nan nan nan nan nan 272 263 255 252 236 230 224 213 214 195 158 177 180 174 178 167 144 146 136 147 155 151 144 141 138 129 117 108 116 128 126 132 127 129 126 116 112 113 110 107 100 102 104 106 110 111 111 107 118 114 108 110 108 100 107 121 115 122 115 123 123 130 137 145 164 134 137 nan nan 146 120 nan
198 197 206 nan nan nan nan nan nan nan nan nan nan 277 271 255 256 251 237 228 215 211 202 180 184 199 186 172 171 157 166 173 176 170 160 142 138 132 127 123 108 114 122 129 135 133 129 129 117 110 111 114 110 103 102 106 105 103 104 103 113 121 123 116 114 110 105 106 104 103 123 123 138 139 143 158 159 162 146 147 129 130 97 108 105
200 203 217 216 nan nan nan nan nan nan nan nan nan 290 277 268 267 266 253 235 226 216 209 192 190 210 202 181 174 158 165 184 181 164 161 161 142 130 130 121 120 101 118 128 131 134 134 129 122 119 120 117 114 107 102 101 98 96 101 114 124 122 120 130 129 126 117 117 113 106 104 108 118 131 131 143 152 153 166 150 137 106 78 111 111
206 206 210 219 223 nan nan nan nan nan nan nan 306 299 289 276 270 274 255 247 233 226 214 203 197 205 207 202 180 165 176 179 173 160 148 149 151 142 152 162 133 120 127 136 130 132 136 129 129 130 124 118 113 114 118 113 100 99 106 112 116 123 126 130 135 131 131 129 124 126 120 108 112 113 119 124 122 136 176 146 142 136 134 86 112
225 200 198 222 229 nan nan nan nan nan nan nan 309 322 312 298 287 281 273 259 250 240 226 213 202 207 213 206 187 182 183 178 171 175 164 157 160 166 168 151 148 140 122 118 123 123 130 129 129 130 128 120 123 128 127 128 118 109 109 114 116 116 116 125 135 124 123 122 119 126 117 125 131 117 127 125 131 158 190 188 152 161 154 140 119
230 209 199 221 224 nan nan nan nan nan nan nan 305 328 325 313 298 288 281 267 255 246 238 223 205 208 210 209 197 192 189 181 176 186 174 162 164 165 160 150 139 121 118 113 122 130 130 125 137 135 131 128 131 128 133 143 148 126 122 121 117 117 127 132 128 128 130 119 119 122 128 142 143 145 150 161 142 164 179 205 178 168 176 157 149
223 218 209 217 221 233 nan nan nan nan nan nan 297 325 328 320 312 300 281 265 264 257 238 235 214 209 208 207 203 198 196 191 180 185 194 179 171 175 167 161 145 134 120 122 135 134 127 132 139 134 126 127 131 131 142 152 157 152 132 121 122 127 131 135 132 133 132 131 133 126 131 151 146 150 165 158 167 164 195 213 224 198 177 187 183
222 215 209 214 216 219 nan nan nan nan nan nan 291 297 311 319 321 312 299 282 284 278 257 247 229 217 215 211 202 203 199 200 193 187 194 198 191 186 173 165 155 149 142 144 132 138 129 130 144 133 127 131 137 135 147 151 157 160 155 143 130 141 135 134 132 134 130 131 132 135 143 141 143 151 164 160 167 173 185 198 236 241 229 191 191
217 217 212 214 213 208 216 220 203 nan nan nan 271 281 297 302 312 317 306 282 283 289 280 255 240 228 222 219 209 204 207 210 208 197 201 201 206 196 185 171 168 161 153 150 143 144 133 132 143 139 137 147 157 154 160 160 164 160 157 150 141 150 147 136 135 131 130 137 142 137 133 141 141 147 162 162 166 174 183 199 209 244 259 238 226
253 256 250 244 244 238 223 223 226 206 227 246 265 269 278 295 309 315 308 295 269 273 261 244 238 229 226 225 215 210 211 210 215 210 206 211 204 203 198 187 169 160 159 157 153 147 151 150 157 153 149 161 166 167 166 165 173 166 158 150 149 158 159 154 143 136 133 143 148 147 148 150 151 155 157 164 166 169 184 193 208 222 240 220 254
240 243 237 247 252 243 233 230 225 218 215 232 244 257 269 281 295 301 306 287 270 258 251 228 223 217 219 222 221 214 212 209 208 211 209 211 207 206 200 186 180 175 171 172 165 159 163 164 169 164 165 163 170 169 167 172 180 169 164 152 156 164 168 161 149 148 143 150 154 152 157 155 152 156 167 168 172 181 190 207 207 222 220 251 266
233 227 234 229 227 236 244 238 234 217 225 223 229 228 250 269 274 271 262 241 233 249 255 242 222 210 211 212 213 214 213 212 208 209 207 205 202 204 195 195 187 191 183 182 176 169 170 168 170 171 170 168 171 168 171 178 180 173 167 157 157 169 170 167 157 157 158 159 160 162 161 161 160 182 185 182 181 188 194 205 219 221 220 236 260
235 226 231 252 240 235 232 229 227 224 223 219 218 226 228 236 254 258 262 240 222 222 241 244 232 214 207 209 213 216 214 214 212 211 209 203 199 197 195 192 197 195 196 191 182 175 173 169 170 173 173 171 174 172 172 183 183 178 173 169 171 174 175 174 173 162 166 167 170 171 168 168 179 191 185 195 195 189 195 202 219 224 219 230 241
231 231 211 208 225 229 223 215 217 222 230 234 223 222 225 220 215 219 222 221 225 221 218 228 234 224 210 205 208 214 216 214 214 215 211 208 201 196 194 197 196 191 200 197 192 184 179 175 171 174 176 175 178 176 173 189 187 187 180 178 179 180 181 178 178 169 168 173 178 178 172 174 188 190 189 192 200 199 201 200 203 218 201 198 234
231 230 214 208 213 230 241 234 221 224 228 230 231 232 229 226 228 230 221 212 206 214 222 227 228 229 225 216 210 210 215 216 218 216 214 211 209 202 199 203 198 194 196 200 205 199 189 182 177 177 182 182 180 175 178 189 190 193 189 186 191 198 192 185 178 173 174 182 182 183 177 187 200 200 197 200 204 202 208 209 201 222 220 208 227
225 228 226 214 220 220 236 236 231 223 229 235 239 242 245 243 240 239 233 227 228 219 223 230 231 237 231 218 215 217 213 217 216 216 218 213 217 213 208 205 204 203 200 199 210 216 211 202 191 183 189 194 191 181 182 189 194 201 198 193 200 213 212 197 188 185 186 187 187 187 182 193 202 206 203 205 207 212 215 216 217 216 227 219 222
224 225 224 221 221 221 228 239 221 220 223 225 232 234 239 242 247 252 250 246 245 242 231 223 220 218 215 216 210 210 216 223 216 215 211 210 215 222 221 214 215 208 203 205 205 218 226 227 217 206 202 205 209 211 207 206 207 215 219 213 214 218 222 220 212 208 204 204 196 192 185 197 205 204 201 206 209 212 213 228 230 230 233 234 234
222 221 222 220 220 222 226 226 224 227 230 233 235 242 247 246 243 246 248 242 241 237 238 238 233 233 232 227 226 227 213 208 220 221 220 218 216 214 212 219 228 224 218 209 210 213 226 232 230 232 232 227 228 233 240 244 240 227 218 215 220 220 223 230 229 227 220 219 214 204 198 205 211 214 203 208 215 213 218 224 230 235 242 243 243
nan 223 221 222 221 222 224 227 228 232 238 238 243 244 244 244 247 247 245 241 237 238 238 239 234 231 239 238 234 232 236 222 207 217 224 217 218 219 219 213 208 225 237 230 221 218 218 226 227 233 237 239 238 233 235 238 236 234 228 216 211 210 213 223 228 234 233 227 222 217 212 212 213 217 216 216 220 224 231 230 237 238 243 250 249
nan nan 224 223 224 224 226 228 232 231 233 244 242 242 242 245 254 254 244 235 235 241 242 236 235 229 227 229 227 228 231 236 232 218 220 221 218 218 217 213 214 205 215 238 240 236 229 229 230 232 231 234 236 232 227 228 227 230 227 215 211 208 206 211 219 226 232 232 230 226 223 224 224 222 224 219 231 228 238 235 238 244 244 251 252
235 234 230 228 227 225 225 228 232 235 234 232 230 235 243 244 243 244 239 231 230 239 241 240 241 238 227 223 226 227 230 237 243 240 230 221 222 219 216 217 211 209 209 214 236 247 245 240 235 236 234 235 241 242 239 238 236 231 230 224 219 213 209 205 207 215 222 226 228 229 228 228 231 230 237 235 237 244 240 236 231 246 245 247 246
239 240 239 233 231 231 227 227 232 235 236 236 235 230 235 237 234 234 234 231 229 231 239 243 241 236 229 224 228 230 232 231 235 234 229 226 224 224 220 214 216 210 205 211 219 224 235 242 238 233 232 233 235 237 248 275 266 252 247 242 237 230 224 216 211 208 210 215 218 222 223 228 233 229 227 228 223 232 247 247 240 248 248 248 249
240 239 242 238 233 231 233 231 232 234 235 233 238 244 237 237 237 234 228 232 239 237 232 234 235 231 228 225 224 230 236 236 233 230 226 226 224 225 224 221 216 215 216 212 222 235 233 235 237 235 232 230 230 233 255 271 276 281 258 251 252 245 241 237 231 224 216 214 214 216 218 212 212 214 217 215 219 217 226 229 230 248 256 258 252
242 243 246 247 242 236 234 237 236 235 236 235 234 238 244 242 239 244 237 231 234 240 242 237 230 226 227 228 229 233 237 235 233 230 229 227 233 230 228 224 222 221 218 221 224 228 230 234 239 239 237 232 230 230 242 254 263 269 261 250 249 248 248 247 245 242 237 232 225 223 223 223 224 223 225 226 225 223 224 223 219 223 240 265 274
244 243 241 243 244 240 235 236 238 236 236 237 239 243 245 245 245 243 248 245 236 229 233 237 232 228 228 228 228 229 229 228 227 227 225 225 224 225 224 223 226 225 224 225 225 226 229 232 236 236 235 235 236 238 241 245 247 253 261 256 248 253 254 254 255 254 252 249 247 242 236 235 232 226 228 231 232 232 237 239 233 225 222 227 227
236 238 239 240 243 244 242 241 241 241 239 237 238 243 244 245 243 238 239 243 245 240 235 228 221 222 223 224 224 223 221 221 223 225 227 226 225 224 223 222 220 222 227 227 226 227 229 232 237 239 235 231 233 232 244 257 261 260 254 249 242 248 253 255 257 258 256 255 255 254 250 246 245 244 244 244 242 242 241 241 244 245 244 242 252
236 235 nan 235 240 243 242 243 243 243 244 243 240 241 244 245 245 243 236 235 235 236 235 235 228 221 223 224 223 223 223 225 229 230 232 229 226 224 225 224 222 220 222 226 229 230 230 233 238 242 243 240 238 240 248 254 257 259 253 248 237 233 233 236 238 240 243 246 249 252 252 251 249 251 252 254 250 nan nan 242 243 244 249 250 252
239 236 233 234 236 240 241 240 241 245 245 245 246 246 246 244 242 241 236 231 231 234 239 241 242 236 232 232 229 226 226 225 226 229 231 231 228 226 226 225 224 221 221 223 227 231 234 236 238 241 245 247 242 244 253 250 249 246 248 244 241 240 238 239 240 242 243 242 241 241 241 240 243 246 249 258 257 253 252 250 249 248 247 251 256
238 235 233 234 236 237 239 240 240 242 244 244 245 246 246 245 243 242 240 238 237 239 239 238 238 237 238 238 235 232 232 228 225 227 229 229 230 227 225 224 225 225 225 225 227 228 228 231 235 239 242 244 245 239 239 243 244 249 245 241 240 237 233 233 235 244 251 254 256 257 255 250 245 246 249 nan nan 261 257 259 260 259 258 256 256
239 235 234 234 234 236 236 239 240 239 241 243 243 245 246 246 246 nan 243 240 238 238 239 239 238 237 233 235 241 241 239 240 236 235 234 232 232 230 225 223 223 224 225 225 226 227 226 225 225 226 229 239 240 239 243 242 242 241 239 240 241 241 237 233 229 231 237 241 249 260 268 266 266 262 263 nan nan nan 263 264 266 266 266 268 266
240 240 238 235 235 237 239 239 239 239 237 240 242 242 243 243 244 245 245 242 239 235 236 239 240 240 240 241 241 245 242 244 244 245 244 242 238 234 231 227 226 226 227 230 232 232 233 233 233 238 230 238 243 245 252 248 251 253 252 251 251 250 245 242 239 235 238 243 244 248 257 264 266 267 nan nan nan nan 270 269 269 268 268 270 271
244 242 241 240 238 239 239 239 240 239 nan nan nan 241 242 241 241 243 243 242 nan 240 239 242 243 244 247 247 247 245 243 243 245 248 249 251 249 243 238 234 230 230 233 235 237 243 241 238 233 234 238 240 243 244 248 261 261 258 259 253 253 255 253 251 251 248 244 242 244 245 249 258 266 269 274 nan nan nan 278 270 267 268 267 260 258
247 245 243 241 nan nan nan nan nan nan nan nan nan nan nan nan nan nan nan nan nan nan nan nan nan 241 242 243 245 247 246 249 251 251 250 251 252 251 248 244 239 237 239 238 235 239 245 247 246 242 237 239 242 241 244 253 253 253 251 255 252 255 253 251 248 250 252 248 245 246 244 244 249 256 264 269 nan nan 271 265 266 268 269 257 249
nan nan nan nan nan nan nan nan nan nan nan nan nan nan nan nan nan nan nan nan nan nan nan nan nan nan nan nan 239 238 241 245 247 248 248 246 248 251 253 250 249 248 249 251 247 242 245 246 247 240 240 243 242 239 239 240 247 250 250 257 257 256 256 251 248 251 254 255 255 251 249 244 239 241 245 251 256 264 273 274 275 277 262 245 247
nan nan nan nan nan nan nan nan nan nan nan nan nan nan nan nan nan nan nan nan nan nan nan nan nan nan nan nan nan nan nan 242 242 243 245 244 245 247 249 252 255 254 255 255 256 256 261 267 261 254 250 250 247 242 239 240 241 247 249 253 261 261 253 254 251 247 249 251 252 252 250 241 235 238 244 247 250 250 260 270 271 268 267 262 256
nan nan nan nan nan nan nan nan nan nan nan nan nan nan nan nan nan nan nan nan nan nan nan nan nan nan nan nan nan nan nan nan nan nan nan nan nan 244 246 247 249 254 256 257 257 259 261 264 264 263 262 259 253 250 243 240 244 251 255 259 261 261 259 257 251 249 250 252 252 253 253 244 241 241 240 243 246 253 261 257 258 262 262 261 264
nan nan nan nan nan nan nan nan nan nan nan nan nan nan nan nan nan nan nan nan nan nan nan nan nan nan nan nan nan nan nan nan nan nan nan nan nan nan nan nan nan nan 250 254 253 257 259 259 261 260 258 257 253 252 253 252 251 253 263 272 274 272 264 264 261 257 257 258 259 255 251 250 250 250 250 250 255 260 264 265 263 264 265 265 265
nan nan nan nan nan nan nan nan nan nan nan nan nan nan nan nan nan nan nan nan nan nan nan nan nan nan nan nan nan nan nan nan nan nan nan nan nan nan nan nan nan nan nan nan nan 253 nan 254 nan nan nan 256 257 nan nan 260 263 265 270 275 278 274 267 267 267 255 248 244 246 248 249 255 261 265 264 262 262 263 263 263 264 269 269 269 268
nan nan nan nan nan nan nan nan nan nan nan nan nan nan nan nan nan nan nan nan nan nan nan nan nan nan nan nan nan nan nan nan nan nan nan nan nan nan nan nan nan nan nan nan nan nan nan nan nan nan nan nan nan nan nan nan 264 266 268 269 271 268 268 263 259 258 253 252 252 253 256 256 257 259 260 261 264 261 256 255 260 264 267 268 269
nan nan nan nan nan nan nan nan nan nan nan nan nan nan nan nan nan nan nan nan nan nan nan nan nan nan nan nan nan nan nan nan nan nan nan nan nan nan nan nan nan nan nan nan nan nan nan nan nan nan nan nan nan nan nan nan nan nan nan nan nan nan 263 262 260 259 256 253 251 251 251 254 255 256 259 261 263 264 260 257 259 263 265 267 270
nan nan nan nan nan nan nan nan nan nan nan nan nan nan nan nan nan nan nan nan nan nan nan nan nan nan nan nan nan nan nan nan nan nan nan nan nan nan nan nan nan nan nan nan nan nan nan nan nan nan nan nan nan nan nan nan nan nan nan nan nan nan nan nan nan nan 251 254 255 255 253 250 252 252 252 255 257 258 258 261 261 263 nan 268 271
nan nan nan nan nan nan nan nan nan nan nan nan nan nan nan nan nan nan nan nan nan nan nan nan nan nan nan nan nan nan nan nan nan nan nan nan nan nan nan nan nan nan nan nan nan nan nan nan nan nan nan nan nan nan nan nan nan nan nan nan nan nan nan nan nan nan nan nan nan 256 257 255 nan nan 251 252 253 nan nan 254 256 257 260 264 271
nan nan nan nan nan nan nan nan nan nan nan nan nan nan nan nan nan nan nan nan nan nan nan nan nan nan nan nan nan nan nan nan nan nan nan nan nan nan nan nan nan nan nan nan nan nan nan nan nan nan nan nan nan nan nan nan nan nan nan nan nan nan nan nan nan nan nan nan nan nan nan nan nan nan nan nan nan nan nan nan nan nan 256 260 268